Lexington, NE

7:40 PM CST on February 05, 2016 (GMT -0600)
Kelly

Weather History for KLXN - April, 2014

Change the Weather History Date:

Tuesday, April 15, 2014

  Actual Average Record
Temperature  
Mean Temperature 44 °F -  
Max Temperature 66 °F 59 °F 91 °F (2002)
Min Temperature 23 °F 34 °F 23 °F (2014)
Degree Days  
Heating Degree Days 20    
Moisture  
Dew Point 27 °F    
Average Humidity 56    
Maximum Humidity 88    
Minimum Humidity 26    
Precipitation  
Precipitation 0.00 in - - ()
Sea Level Pressure  
Sea Level Pressure 29.93 in    
Wind  
Wind Speed 7 mph (South)    
Max Wind Speed 23 mph    
Max Gust Speed 30 mph    
Visibility 10 miles    
Events      
Averages and records for this station are not official NWS values.
T = Trace of Precipitation, MM = Missing Value Source: NWS Daily Summary

Daily Weather History Graph

Daily Weather History Graph

Search for Another Location

Airport or City:

Trip Planner

Search our weather history database for the weather conditions in past years. The results will help you decide how hot, cold, wet, or windy it might be!

Date:

Astronomy

Apr. 15, 2014 Rise Set
Actual Time 7:00 AM CDT 8:18 PM CDT
Civil Twilight 6:31 AM CDT 8:47 PM CDT
Nautical Twilight 5:57 AM CDT 9:21 PM CDT
Astronomical Twilight 5:21 AM CDT 9:57 PM CDT
Moon 9:01 PM CDT (4/15) 7:09 AM CDT (4/15)
Length of Visible Light 14h 15m
Length of Day
13h 18m
Full, 100% of the Moon is Illuminated
Apr 15
Full
Apr 22
Last Quarter
Apr 29
New
May 6
First Quarter
May 14
Full

Hourly Weather History & Observations

Time (CDT) Temp. Windchill Dew Point Humidity Pressure Visibility Wind Dir Wind Speed Gust Speed Precip Events Conditions
12:15 AM 29.5 °F - 22.8 °F 76% 30.18 in 10.0 mi Calm Calm - N/A   Clear
12:35 AM 28.8 °F - 24.1 °F 83% 30.18 in 10.0 mi Calm Calm - N/A   Clear
12:55 AM 28.8 °F 25.0 °F 23.0 °F 79% 30.17 in 10.0 mi NNE 3.5 mph - N/A   Clear
1:15 AM 26.2 °F - 23.0 °F 88% 30.17 in 10.0 mi Calm Calm - N/A   Clear
1:35 AM 27.3 °F - 23.0 °F 84% 30.17 in 10.0 mi Calm Calm - N/A   Clear
1:55 AM 28.4 °F - 21.6 °F 76% 30.17 in 10.0 mi Calm Calm - N/A   Clear
2:15 AM 28.6 °F - 24.4 °F 84% 30.17 in 10.0 mi Calm Calm - N/A   Clear
2:35 AM 27.9 °F - 20.8 °F 75% 30.16 in 10.0 mi Calm Calm - N/A   Clear
2:55 AM 27.3 °F - 20.3 °F 75% 30.14 in 10.0 mi Calm Calm - N/A   Clear
3:15 AM 26.8 °F - 23.0 °F 86% 30.14 in 10.0 mi Calm Calm - N/A   Clear
3:35 AM 26.6 °F - 22.5 °F 84% 30.14 in 10.0 mi Calm Calm - N/A   Clear
3:55 AM 26.8 °F 22.8 °F 20.7 °F 78% 30.14 in 10.0 mi SSW 3.5 mph - N/A   Clear
4:15 AM 26.4 °F - 19.9 °F 77% 30.14 in 10.0 mi Calm Calm - N/A   Clear
4:35 AM 26.6 °F 22.6 °F 19.9 °F 76% 30.14 in 10.0 mi SSW 3.5 mph - N/A   Clear
4:55 AM 26.4 °F 20.9 °F 20.1 °F 77% 30.13 in 10.0 mi SW 4.6 mph - N/A   Clear
5:15 AM 25.7 °F 21.5 °F 18.3 °F 74% 30.13 in 10.0 mi SSW 3.5 mph - N/A   Clear
5:35 AM 25.7 °F - 20.8 °F 82% 30.12 in 10.0 mi Calm Calm - N/A   Clear
5:55 AM 24.8 °F 20.5 °F 18.7 °F 78% 30.11 in 10.0 mi SE 3.5 mph - N/A   Clear
6:15 AM 23.7 °F 17.8 °F 18.1 °F 79% 30.11 in 10.0 mi ESE 4.6 mph - N/A   Clear
6:35 AM 24.4 °F 18.6 °F 18.5 °F 78% 30.10 in 10.0 mi SE 4.6 mph - N/A   Clear
6:55 AM 26.1 °F 19.4 °F 17.6 °F 70% 30.09 in 10.0 mi SE 5.8 mph - N/A   Clear
7:15 AM 26.1 °F 19.4 °F 18.1 °F 72% 30.09 in 10.0 mi SSE 5.8 mph - N/A   Clear
7:35 AM 26.1 °F 20.5 °F 19.4 °F 76% 30.09 in 10.0 mi SE 4.6 mph - N/A   Clear
7:55 AM 27.1 °F 20.7 °F 20.8 °F 77% 30.09 in 10.0 mi SSE 5.8 mph - N/A   Clear
8:15 AM 28.9 °F 20.4 °F 21.2 °F 73% 30.07 in 10.0 mi SE 9.2 mph - N/A   Clear
8:35 AM 30.4 °F 21.0 °F 22.1 °F 71% 30.06 in 10.0 mi SSE 11.5 mph - N/A   Clear
8:55 AM 31.8 °F 22.8 °F 22.1 °F 67% 30.06 in 10.0 mi SSE 11.5 mph - N/A   Clear
9:15 AM 32.9 °F 24.7 °F 23.0 °F 67% 30.05 in 10.0 mi SSE 10.4 mph - N/A   Clear
9:35 AM 34.9 °F 27.1 °F 23.4 °F 63% 30.04 in 10.0 mi SSE 10.4 mph - N/A   Clear
9:55 AM 37.2 °F 30.0 °F 25.2 °F 62% 30.03 in 10.0 mi SSE 10.4 mph - N/A   Clear
10:15 AM 38.7 °F 31.8 °F 26.4 °F 61% 30.03 in 10.0 mi SSE 10.4 mph - N/A   Clear
10:35 AM 40.5 °F 33.6 °F 27.9 °F 61% 30.02 in 10.0 mi South 11.5 mph - N/A   Clear
10:55 AM 41.9 °F 35.4 °F 28.2 °F 58% 30.01 in 10.0 mi South 11.5 mph 16.1 mph N/A   Clear
11:15 AM 43.0 °F 35.7 °F 29.3 °F 59% 30.00 in 10.0 mi South 15.0 mph - N/A   Clear
11:35 AM 44.6 °F 37.8 °F 29.7 °F 56% 29.98 in 10.0 mi South 15.0 mph - N/A   Clear
12:00 PM 46.8 °F - 30.9 °F 54% 29.97 in 10.0 mi South 18.4 mph 23.0 mph N/A   Clear
12:35 PM 51.1 °F - 32.2 °F 48% 29.95 in 10.0 mi South 19.6 mph 23.0 mph N/A   Clear
12:55 PM 53.2 °F - 28.8 °F 39% 29.94 in 10.0 mi South 21.9 mph 28.8 mph N/A   Clear
1:15 PM 54.9 °F - 30.2 °F 39% 29.91 in 10.0 mi South 19.6 mph 29.9 mph N/A   Clear
1:35 PM 55.4 °F - 30.4 °F 38% 29.90 in 10.0 mi SSW 20.7 mph 27.6 mph N/A   Clear
1:55 PM 56.1 °F - 30.9 °F 38% 29.89 in 10.0 mi South 20.7 mph - N/A   Clear
2:15 PM 57.6 °F - 32.0 °F 38% 29.87 in 10.0 mi South 20.7 mph 26.5 mph N/A   Clear
2:35 PM 57.0 °F - 30.4 °F 36% 29.86 in 10.0 mi South 19.6 mph 27.6 mph N/A   Clear
2:55 PM 58.5 °F - 31.1 °F 35% 29.85 in 10.0 mi South 23.0 mph 27.6 mph N/A   Clear
3:15 PM 59.9 °F - 32.2 °F 35% 29.83 in 10.0 mi South 20.7 mph 25.3 mph N/A   Clear
3:35 PM 61.3 °F - 32.2 °F 33% 29.82 in 10.0 mi South 20.7 mph 28.8 mph N/A   Clear
4:00 PM 63.5 °F - 32.7 °F 32% 29.80 in 10.0 mi SSW 20.7 mph 27.6 mph N/A   Clear
4:15 PM 61.9 °F - 28.4 °F 28% 29.79 in 10.0 mi SSW 20.7 mph 26.5 mph N/A   Clear
4:55 PM 62.6 °F - 27.9 °F 27% 29.77 in 10.0 mi SSW 16.1 mph - N/A   Clear
5:15 PM 62.1 °F - 31.3 °F 31% 29.76 in 10.0 mi South 12.7 mph - N/A   Clear
5:35 PM 64.0 °F - 30.0 °F 28% 29.74 in 10.0 mi SSW 17.3 mph - N/A   Clear
5:55 PM 65.7 °F - 30.7 °F 27% 29.73 in 10.0 mi South 13.8 mph 21.9 mph N/A   Clear
6:15 PM 66.2 °F - 29.8 °F 26% 29.72 in 10.0 mi SSW 17.3 mph 25.3 mph N/A   Clear
6:35 PM 63.9 °F - 32.4 °F 31% 29.71 in 10.0 mi South 17.3 mph - N/A   Clear
6:55 PM 62.6 °F - 34.2 °F 35% 29.70 in 10.0 mi South 11.5 mph - N/A   Clear
7:15 PM 61.0 °F - 38.1 °F 43% 29.70 in 10.0 mi SSE 8.1 mph - N/A   Clear
7:35 PM 61.7 °F - 31.8 °F 33% 29.69 in 10.0 mi South 9.2 mph - N/A   Clear
7:55 PM 58.6 °F - 32.5 °F 37% 29.69 in 10.0 mi South 9.2 mph - N/A   Clear
8:15 PM 55.6 °F - 32.9 °F 42% 29.69 in 10.0 mi South 10.4 mph - N/A   Clear
8:35 PM 52.7 °F - 33.3 °F 48% 29.69 in 10.0 mi SSE 10.4 mph - N/A   Clear
8:55 PM 52.7 °F - 32.0 °F 45% 29.69 in 10.0 mi South 13.8 mph - N/A   Clear
9:15 PM 52.5 °F - 32.2 °F 46% 29.69 in 10.0 mi South 11.5 mph - N/A   Clear
9:35 PM 53.1 °F - 31.5 °F 44% 29.69 in 10.0 mi South 17.3 mph - N/A   Clear
9:55 PM 53.2 °F - 30.9 °F 43% 29.69 in 10.0 mi South 18.4 mph - N/A   Clear
10:15 PM 52.9 °F - 30.4 °F 42% 29.69 in 10.0 mi South 19.6 mph 23.0 mph N/A   Clear
10:35 PM 52.0 °F - 30.2 °F 43% 29.69 in 10.0 mi South 18.4 mph - N/A   Clear
10:55 PM 52.3 °F - 29.3 °F 41% 29.68 in 10.0 mi South 18.4 mph 25.3 mph N/A   Clear
11:15 PM 51.3 °F - 29.5 °F 43% 29.68 in 10.0 mi South 18.4 mph - N/A   Clear
11:35 PM 50.5 °F - 29.7 °F 45% 29.67 in 10.0 mi South 19.6 mph - N/A   Clear
11:55 PM 51.1 °F - 29.1 °F 43% 29.66 in 10.0 mi South 19.6 mph 26.5 mph N/A   Clear